Wind_Speed
64 63 62 60 58 57 56 56 55 52 50 51 50 47 42 41 40 36 34 31 29 26 26 25 23 21 20 20 20 19 19 19 18 18 18 19 20 21 21 21 22 22 23 23
64 65 60 59 58 57 56 56 56 54 52 53 53 52 47 46 43 40 37 35 31 29 28 26 26 24 22 22 22 21 21 21 20 21 21 21 21 20 21 21 22 23 24 25
63 61 60 61 60 60 58 56 55 54 53 55 56 57 52 48 46 43 41 38 35 31 29 28 27 27 25 23 23 23 23 23 23 23 23 22 22 21 21 23 25 26 26 27
62 62 61 61 61 60 60 57 55 55 55 56 58 61 55 51 49 47 44 41 37 34 33 31 29 28 26 26 26 25 25 25 24 25 24 24 24 23 25 26 27 27 27 28
62 62 61 61 59 58 58 57 56 56 56 58 59 63 61 54 51 48 45 43 40 37 36 34 32 30 29 29 28 27 27 26 26 26 26 26 25 25 27 28 28 29 30 30
58 59 60 59 57 57 57 57 57 58 59 63 61 64 66 58 52 48 46 45 42 40 39 37 36 34 32 31 30 29 28 28 28 28 28 28 27 28 30 30 31 31 32 32
60 60 60 58 57 57 58 59 59 60 63 67 64 67 68 60 53 50 47 45 43 41 40 39 38 36 34 33 32 32 31 30 30 30 30 29 30 31 32 32 33 34 34 34
60 62 62 60 59 58 58 60 61 62 64 65 66 69 67 62 56 52 48 46 45 43 42 41 39 39 37 36 35 34 33 32 32 32 31 32 32 33 33 33 35 36 36 37
61 62 60 60 59 58 58 60 58 59 61 63 67 67 66 63 60 55 51 49 47 46 45 44 43 41 40 39 38 37 36 35 35 34 34 35 35 35 35 36 37 37 38 39
60 61 61 59 59 60 59 57 58 60 60 61 65 67 66 62 60 59 56 52 49 48 47 46 46 44 43 41 40 40 40 38 38 38 37 37 37 37 38 39 39 40 41 42
59 59 60 62 62 60 60 60 59 59 60 61 63 64 61 59 58 56 55 54 52 50 50 49 48 48 46 45 44 43 42 42 41 41 40 40 40 40 41 42 42 43 44 45
58 57 59 60 58 57 59 60 61 62 62 61 62 61 56 56 55 55 54 53 52 51 50 49 49 48 47 47 46 46 45 44 44 44 44 43 43 43 44 44 45 46 47 48
59 60 59 59 61 60 59 58 58 58 60 62 62 57 53 53 53 53 52 51 51 50 49 48 48 48 48 48 48 48 47 47 47 47 47 47 47 47 47 47 48 49 50 51
61 61 62 62 60 59 60 59 58 60 62 62 60 55 52 52 51 50 49 49 48 48 49 48 48 48 48 49 49 50 50 50 50 50 50 50 50 50 50 50 51 51 52 53
60 60 60 59 59 60 60 60 60 61 60 60 55 53 50 49 48 49 49 49 49 49 49 48 48 48 48 49 50 50 51 51 51 51 51 52 52 52 53 53 54 54 55 56
58 59 59 60 59 61 62 60 59 59 58 57 56 53 47 47 48 50 50 50 49 49 49 48 48 48 48 49 49 50 51 52 52 53 53 53 53 54 54 55 56 56 57 58
54 56 58 60 60 62 64 60 58 58 56 56 55 48 45 48 48 48 48 49 50 50 49 48 48 47 47 48 49 50 51 52 52 53 53 54 54 54 55 56 56 57 58 59
52 52 54 57 58 63 60 55 54 54 53 51 50 47 47 46 45 46 47 48 49 49 49 48 48 48 48 48 48 49 50 51 51 52 53 54 55 55 55 56 56 57 58 59
51 51 52 54 57 60 60 57 53 52 52 48 48 46 46 46 48 49 47 47 48 48 48 49 49 49 49 48 48 49 49 50 51 51 52 52 53 53 54 55 55 56 56 57
49 50 52 53 54 56 56 54 53 53 54 49 49 47 45 47 51 48 45 46 47 48 49 49 49 49 49 49 49 49 49 49 49 50 50 50 50 51 52 53 54 54 55 56
48 49 50 52 53 52 50 50 52 55 50 47 48 48 49 50 49 45 46 47 48 48 49 49 49 49 49 49 49 48 48 48 47 48 48 48 48 49 50 51 51 52 53 53
46 48 49 51 52 49 46 48 50 49 46 47 47 47 48 49 49 48 49 49 49 48 48 48 49 48 48 48 48 47 46 46 46 46 46 47 47 47 48 49 49 50 51 51
45 45 46 49 48 46 46 46 45 46 47 47 47 46 47 49 49 50 50 50 50 49 48 48 48 48 48 47 47 46 45 45 45 45 45 45 45 46 46 47 47 48 48 49
44 44 46 47 47 47 45 45 45 45 46 47 47 46 46 47 48 48 49 49 49 48 48 48 47 47 46 46 46 45 45 44 44 44 44 44 44 44 44 45 46 46 47 47
43 45 46 48 48 47 46 46 46 45 46 47 47 46 46 46 47 48 49 49 48 48 48 47 47 47 46 46 45 45 44 44 43 43 43 43 43 43 44 44 44 45 46 47
41 42 44 45 45 46 47 47 48 48 46 46 46 45 46 46 47 47 49 50 49 49 49 49 48 47 47 46 46 45 45 44 44 44 43 43 43 43 44 44 44 45 46 46
Wind_Direction
228 229 230 232 235 237 238 238 239 240 240 242 243 241 238 241 243 242 242 244 244 245 246 247 249 249 247 248 248 248 248 248 248 247 246 246 247 249 252 255 256 257 257 257
228 230 232 234 234 235 237 238 239 240 241 242 242 242 239 240 242 243 242 243 245 245 247 249 250 251 250 249 250 250 250 250 249 249 249 250 253 256 257 258 259 257 257 258
230 231 232 232 233 234 236 238 239 242 243 244 244 243 240 240 242 243 243 244 245 247 248 249 251 252 251 250 250 250 250 250 251 252 253 255 256 258 258 258 257 258 259 261
229 229 231 233 233 235 237 238 241 243 244 245 245 246 239 240 241 242 244 245 246 247 248 249 251 253 253 251 249 250 252 252 252 255 256 257 257 258 258 258 260 262 264 265
229 230 231 233 235 236 238 238 241 243 245 246 245 247 240 239 240 241 244 246 247 248 249 250 251 252 253 253 252 252 254 255 256 258 259 259 259 259 259 261 263 264 265 265
228 229 231 233 234 235 236 237 239 242 244 245 244 248 244 238 240 242 243 245 247 249 250 251 251 252 253 254 254 254 255 257 258 259 261 262 261 260 261 263 263 264 266 267
226 228 229 230 230 232 234 235 237 240 242 246 245 248 245 240 240 242 244 245 247 248 250 251 252 253 253 253 254 255 255 257 258 259 260 262 263 263 264 264 265 266 267 269
226 228 229 231 232 234 236 237 238 240 244 248 247 248 246 246 244 244 245 246 247 249 250 251 252 253 253 253 255 256 257 259 259 260 260 261 263 265 266 266 266 267 269 269
226 229 231 232 234 235 235 237 239 242 245 247 248 249 248 247 248 247 247 248 249 250 251 252 252 253 253 254 255 257 258 259 260 261 261 262 263 265 266 266 266 268 269 269
225 229 230 231 232 233 235 238 238 240 242 245 247 248 248 248 250 251 251 251 251 251 252 252 253 253 254 254 255 257 259 260 261 261 262 263 264 264 265 266 267 268 268 268
224 228 230 230 231 233 234 234 236 239 242 244 248 250 250 252 252 252 252 253 253 253 253 253 253 253 254 255 256 258 259 259 260 261 262 263 264 264 265 266 267 267 268 268
223 226 229 230 231 233 235 236 237 238 241 245 249 251 251 252 252 252 252 253 253 253 253 253 254 254 255 255 257 258 258 259 259 260 262 263 264 265 266 266 266 267 267 268
223 225 228 229 229 230 232 233 235 238 242 244 247 249 249 251 252 252 252 252 252 252 251 251 252 252 253 254 256 256 257 258 259 260 262 263 263 264 265 266 266 266 267 268
225 228 228 230 232 233 233 234 235 237 240 243 245 247 246 248 250 251 252 252 251 251 251 251 251 252 253 254 254 256 257 259 260 261 262 262 263 263 264 265 266 266 267 268
225 229 230 231 233 234 235 235 235 238 241 244 243 243 243 246 248 249 250 250 251 250 251 251 251 251 252 253 254 255 257 258 259 260 261 261 262 263 264 264 265 266 267 268
225 229 230 232 232 234 235 234 236 238 241 243 242 241 241 244 245 246 248 248 249 250 251 250 250 251 252 253 253 254 256 257 259 260 261 262 263 264 265 265 266 267 268 269
227 230 233 234 234 236 236 234 236 238 239 241 241 240 240 242 245 246 246 247 248 249 250 250 250 250 250 251 253 254 255 256 258 260 261 262 263 265 266 266 267 268 269 271
226 228 232 236 236 239 235 234 237 239 239 241 241 238 237 240 241 242 243 244 247 249 250 250 250 250 251 252 254 254 255 257 258 260 261 262 263 265 266 267 268 270 271 272
229 230 231 234 239 241 237 235 237 240 239 238 241 237 236 238 239 238 240 243 246 248 250 251 250 251 252 253 255 256 257 257 259 260 261 263 264 265 267 268 269 270 272 273
231 232 233 235 239 241 239 238 240 244 242 237 241 239 237 238 240 238 241 245 246 248 249 250 251 252 253 255 256 258 259 260 261 262 263 264 265 267 268 269 271 272 273 274
233 234 236 237 239 241 238 237 239 242 241 239 241 240 239 240 242 239 240 243 245 247 248 250 251 253 254 256 258 260 261 262 263 264 265 266 267 268 270 271 273 274 274 275
236 236 237 238 240 239 238 239 240 241 240 239 239 239 240 239 239 238 239 241 244 246 248 249 251 253 255 257 260 261 263 265 266 266 267 268 268 270 271 273 274 275 276 277
239 240 240 240 241 239 238 239 239 238 238 237 237 238 239 238 238 238 240 242 243 245 248 250 251 253 255 257 260 262 263 265 266 266 267 268 269 270 272 273 275 276 277 278
241 240 241 242 241 238 238 239 239 238 236 236 237 236 235 236 237 238 240 242 243 245 248 250 251 253 256 258 259 261 262 264 266 267 268 269 270 271 272 274 275 276 277 277
242 240 242 243 243 242 240 241 241 240 238 238 239 238 237 237 238 239 240 242 244 245 246 248 250 253 255 257 258 260 262 264 265 266 267 268 269 271 272 273 275 276 278 278
243 244 244 244 243 243 242 242 242 241 241 241 240 238 237 238 239 240 241 243 244 245 246 248 250 252 254 256 258 260 262 263 265 265 266 267 268 270 272 274 275 277 278 279
Height
5727 5734 5741 5753 5762 5769 5773 5778 5784 5792 5797 5800 5804 5811 5818 5820 5823 5828 5832 5836 5840 5843 5844 5846 5849 5850 5852 5854 5855 5856 5857 5858 5859 5860 5861 5862 5862 5863 5864 5865 5866 5866 5866 5866
5716 5725 5739 5746 5751 5756 5762 5768 5775 5781 5786 5789 5794 5799 5808 5812 5816 5822 5826 5830 5833 5837 5839 5842 5844 5845 5847 5848 5850 5851 5852 5853 5854 5855 5856 5857 5858 5859 5860 5860 5861 5861 5861 5861
5708 5722 5729 5733 5739 5745 5751 5760 5767 5772 5776 5778 5782 5788 5797 5805 5809 5814 5819 5823 5827 5831 5834 5836 5838 5840 5841 5843 5844 5845 5846 5847 5849 5849 5851 5852 5853 5854 5855 5855 5855 5855 5855 5855
5697 5708 5715 5721 5728 5736 5744 5754 5758 5761 5763 5767 5772 5774 5788 5796 5800 5806 5812 5816 5821 5825 5827 5830 5832 5834 5836 5837 5838 5839 5840 5842 5843 5844 5845 5846 5847 5849 5849 5848 5849 5849 5849 5849
5687 5698 5704 5710 5722 5729 5738 5744 5747 5749 5752 5754 5759 5763 5775 5785 5792 5799 5805 5809 5813 5817 5820 5822 5825 5828 5829 5830 5831 5833 5834 5836 5837 5838 5839 5840 5841 5842 5842 5842 5843 5843 5842 5842
5678 5686 5693 5704 5713 5718 5725 5730 5733 5735 5736 5739 5751 5753 5760 5776 5786 5792 5797 5801 5804 5808 5811 5814 5817 5819 5822 5823 5825 5826 5828 5829 5830 5831 5832 5833 5834 5835 5835 5835 5835 5835 5835 5835
5665 5673 5682 5691 5698 5704 5710 5717 5721 5721 5721 5729 5742 5739 5750 5768 5776 5782 5788 5792 5795 5799 5802 5805 5808 5811 5814 5815 5817 5818 5820 5822 5823 5823 5825 5826 5826 5826 5827 5827 5827 5827 5827 5827
5655 5662 5672 5680 5688 5696 5702 5706 5710 5713 5715 5723 5727 5728 5745 5756 5764 5771 5777 5782 5786 5789 5793 5796 5799 5801 5804 5806 5808 5810 5812 5813 5814 5815 5817 5817 5818 5818 5819 5819 5819 5818 5818 5819
5646 5655 5665 5672 5680 5686 5689 5693 5702 5704 5705 5709 5710 5720 5734 5744 5751 5759 5767 5772 5776 5779 5783 5786 5788 5791 5794 5797 5799 5801 5803 5804 5805 5806 5807 5808 5809 5809 5810 5810 5809 5809 5809 5809
5637 5645 5653 5661 5665 5670 5678 5685 5688 5689 5692 5695 5700 5709 5724 5736 5742 5748 5754 5759 5764 5768 5771 5775 5778 5781 5784 5786 5789 5791 5793 5795 5796 5797 5798 5799 5799 5800 5800 5800 5800 5799 5799 5798
5627 5634 5641 5646 5650 5660 5667 5671 5675 5680 5682 5686 5690 5702 5718 5725 5730 5736 5741 5745 5750 5754 5758 5762 5766 5769 5772 5775 5778 5780 5782 5783 5785 5786 5787 5788 5789 5789 5789 5789 5789 5789 5788 5787
5616 5622 5627 5635 5644 5650 5654 5660 5665 5669 5672 5677 5681 5694 5707 5713 5717 5722 5728 5733 5737 5741 5745 5749 5753 5756 5760 5763 5765 5768 5770 5772 5773 5774 5775 5776 5777 5777 5777 5778 5778 5777 5776 5775
5605 5610 5615 5621 5628 5634 5639 5647 5654 5660 5663 5665 5670 5685 5698 5700 5704 5710 5715 5719 5723 5727 5731 5735 5739 5743 5746 5749 5752 5755 5757 5759 5761 5762 5763 5764 5764 5765 5765 5765 5765 5764 5763 5762
5593 5597 5604 5610 5618 5626 5631 5638 5643 5646 5648 5654 5662 5676 5685 5689 5693 5697 5701 5705 5709 5713 5718 5722 5726 5729 5732 5736 5739 5741 5744 5746 5747 5749 5750 5751 5751 5751 5752 5751 5751 5750 5749 5748
5580 5586 5593 5600 5607 5613 5618 5625 5630 5633 5639 5645 5654 5663 5673 5679 5682 5685 5688 5691 5695 5700 5705 5708 5712 5715 5718 5722 5725 5727 5729 5731 5733 5735 5736 5736 5737 5737 5737 5737 5737 5736 5735 5734
5569 5576 5582 5588 5595 5599 5603 5610 5617 5622 5629 5635 5642 5650 5664 5667 5668 5671 5675 5679 5683 5687 5691 5695 5698 5702 5705 5708 5710 5713 5715 5717 5719 5720 5721 5722 5722 5723 5723 5723 5722 5722 5721 5719
5560 5567 5572 5577 5583 5584 5587 5599 5606 5613 5619 5625 5630 5644 5653 5654 5657 5660 5663 5666 5670 5674 5678 5681 5685 5688 5691 5694 5696 5699 5701 5702 5704 5706 5706 5707 5707 5708 5708 5708 5707 5706 5705 5704
5551 5556 5561 5566 5570 5570 5583 5593 5597 5602 5608 5616 5622 5631 5638 5642 5645 5646 5649 5653 5657 5661 5665 5668 5671 5674 5677 5680 5682 5685 5687 5689 5690 5691 5692 5692 5693 5693 5693 5693 5692 5691 5690 5689
5542 5546 5550 5554 5556 5559 5572 5582 5587 5591 5596 5606 5611 5619 5625 5628 5628 5632 5639 5642 5646 5649 5652 5655 5657 5660 5663 5666 5668 5671 5673 5674 5676 5677 5677 5678 5678 5678 5678 5678 5677 5676 5675 5674
5531 5535 5540 5543 5545 5550 5565 5575 5578 5578 5582 5597 5600 5606 5612 5613 5614 5625 5631 5631 5633 5636 5639 5642 5644 5647 5650 5653 5654 5657 5659 5660 5662 5662 5663 5664 5664 5664 5663 5663 5662 5661 5660 5659
5521 5524 5528 5533 5535 5541 5556 5562 5562 5565 5578 5589 5589 5594 5597 5599 5606 5615 5615 5617 5620 5623 5626 5628 5631 5634 5637 5639 5641 5643 5645 5647 5648 5648 5649 5650 5650 5650 5649 5649 5648 5647 5646 5644
5511 5515 5519 5523 5526 5538 5547 5549 5552 5559 5569 5573 5575 5579 5583 5588 5593 5597 5601 5604 5607 5610 5613 5616 5619 5622 5624 5626 5628 5630 5631 5633 5634 5635 5635 5636 5636 5635 5635 5634 5633 5632 5631 5630
5501 5506 5509 5514 5522 5529 5533 5538 5542 5548 5554 5559 5562 5566 5570 5575 5579 5583 5588 5591 5594 5598 5601 5604 5606 5609 5611 5613 5615 5617 5618 5619 5620 5621 5622 5622 5622 5621 5621 5620 5619 5618 5617 5616
5491 5495 5498 5503 5511 5517 5521 5526 5530 5536 5540 5544 5548 5553 5557 5561 5566 5570 5575 5579 5582 5586 5589 5592 5594 5597 5599 5601 5602 5604 5605 5606 5607 5607 5608 5608 5608 5607 5607 5606 5605 5604 5603 5602
5481 5485 5488 5492 5500 5505 5510 5515 5519 5524 5528 5531 5536 5540 5544 5548 5553 5557 5562 5566 5569 5573 5576 5579 5581 5584 5586 5587 5589 5591 5592 5593 5594 5594 5594 5594 5594 5593 5593 5592 5591 5590 5589 5588
5472 5475 5479 5484 5490 5494 5499 5503 5507 5511 5515 5519 5523 5528 5532 5536 5540 5544 5549 5552 5556 5559 5562 5565 5568 5570 5572 5574 5576 5577 5579 5580 5580 5580 5580 5580 5580 5580 5579 5578 5577 5576 5575 5574